Wind_Speed
25 23 21 20 20 19 18 17 17 16 15 15 15 15 14 13 13 13 13 13 13 13 15 17 18 19 19 20 22 25 27 27 26 25 23 22 21 20 19 19 18 17 16 14 13 12 11 10 8 7 6 6 5 5 4 3 2 3 3 3 4 5 6
28 26 25 25 24 23 21 20 20 19 18 17 16 16 16 15 14 14 14 14 14 14 14 15 16 18 18 19 20 24 27 28 28 27 25 24 23 21 20 19 18 18 17 16 15 14 13 11 10 9 8 8 7 6 5 4 4 4 4 4 5 6 7
32 31 30 29 28 26 24 23 23 21 20 19 18 16 15 15 14 14 14 14 15 15 15 15 16 17 19 20 20 22 24 27 28 28 27 25 24 22 21 20 19 19 18 18 16 15 15 13 12 11 10 10 9 8 7 6 6 6 6 6 6 7 7
35 34 33 33 31 28 26 26 25 22 21 20 18 17 16 16 16 16 16 16 16 17 17 17 16 15 18 21 22 22 22 24 26 28 27 26 25 24 23 21 20 20 19 18 17 17 16 15 14 13 12 11 10 10 9 7 7 7 7 7 7 7 7
39 38 36 35 33 30 28 28 27 25 23 21 20 19 18 18 17 17 17 17 18 18 18 17 16 15 16 19 23 23 23 22 23 25 27 27 26 26 25 23 21 20 19 19 18 18 17 17 16 14 13 13 12 12 11 9 8 8 8 8 8 8 7
42 41 39 38 36 33 31 30 29 27 24 22 21 20 19 19 18 17 17 18 19 19 18 18 18 18 18 19 22 24 25 24 23 24 26 27 28 27 26 25 23 22 21 20 20 19 18 18 17 16 15 14 14 13 13 11 10 10 10 9 9 8 8
45 44 42 40 38 35 34 32 31 29 26 23 22 21 21 21 19 18 18 18 19 19 20 20 20 20 21 21 22 24 26 27 25 25 25 27 28 28 27 26 25 24 23 22 21 21 20 19 18 18 17 16 16 15 14 13 12 12 12 11 10 9 9
47 45 44 42 39 37 36 34 32 30 27 25 24 24 24 23 20 19 18 18 19 20 21 22 22 22 22 22 22 24 26 27 28 27 26 27 27 28 28 27 26 25 25 24 23 22 21 20 20 19 19 18 17 17 16 16 15 14 14 13 12 11 10
48 47 45 43 41 39 38 36 34 31 29 27 27 26 25 24 22 20 19 18 18 20 21 22 23 23 23 23 23 23 24 26 28 28 29 28 28 28 28 27 27 26 26 25 24 23 22 22 21 21 20 19 19 18 18 18 17 16 16 15 13 12 11
50 47 46 44 42 41 39 37 34 32 30 30 30 28 27 26 24 22 20 19 19 20 20 21 23 24 24 24 24 23 24 25 27 28 29 30 29 29 29 28 28 27 26 26 25 25 24 23 23 22 22 21 20 20 20 20 19 18 18 17 15 14 13
51 49 47 46 43 41 40 38 35 34 34 34 32 31 30 28 26 24 23 22 20 19 19 21 23 24 25 26 25 24 24 26 27 28 30 31 31 30 30 30 30 29 28 27 27 26 25 24 24 23 23 22 22 22 22 21 21 20 20 19 17 16 15
51 50 49 47 44 42 41 39 38 37 37 36 34 33 31 29 27 26 25 23 21 20 19 20 22 23 25 26 26 26 26 26 28 29 30 30 31 31 31 31 31 30 29 29 28 27 26 26 25 24 23 23 23 23 23 23 22 22 22 21 19 18 17
52 51 49 47 45 43 42 41 40 39 39 38 36 34 32 30 29 27 26 25 23 21 20 20 21 23 24 26 27 28 28 28 29 31 31 30 29 30 32 32 31 30 30 30 29 28 28 27 26 25 24 24 25 25 24 23 23 23 23 23 22 20 19
53 51 48 47 45 44 44 43 42 42 41 39 36 35 33 31 30 28 27 26 24 22 22 22 22 23 24 26 27 29 30 30 31 32 31 30 29 30 32 33 32 32 31 31 31 30 29 28 27 26 25 26 26 25 24 24 24 25 25 25 24 23 21
53 51 49 47 46 46 45 44 43 42 41 39 37 36 34 33 31 30 28 27 26 25 25 24 24 24 25 26 28 30 30 31 31 32 31 30 29 29 31 33 34 34 33 33 33 32 31 29 28 27 26 27 26 26 25 24 25 26 27 27 26 25 23
54 52 50 48 47 46 45 44 44 43 42 41 39 37 36 35 33 31 30 29 28 27 27 26 26 25 26 27 29 29 30 30 31 32 31 31 31 30 31 32 33 35 35 35 35 34 33 31 30 29 28 27 27 26 25 25 25 27 28 28 28 27 26
56 53 51 49 48 48 47 47 47 46 44 42 41 40 38 37 35 33 32 30 29 28 28 28 27 26 26 28 28 28 29 30 31 32 32 32 32 32 32 32 33 34 36 37 37 36 35 34 32 31 30 29 28 28 26 25 26 27 29 30 30 29 28
57 54 52 51 51 51 51 50 49 47 45 43 42 41 39 37 36 34 33 32 32 31 30 29 28 27 27 28 28 29 30 31 31 32 33 33 33 33 33 34 34 34 36 37 38 38 38 36 35 33 32 31 30 29 27 26 27 29 30 30 31 31 31
58 56 55 54 53 53 52 50 48 47 45 44 43 42 41 39 38 37 36 35 34 32 31 30 28 28 28 28 29 30 31 32 32 33 34 35 35 34 34 35 36 36 37 37 37 38 39 39 38 36 34 33 32 31 29 28 28 30 31 31 32 33 33
60 58 57 56 56 54 52 50 49 49 47 46 44 44 43 41 40 38 37 35 33 32 31 30 29 29 29 29 30 31 32 33 34 34 35 36 36 35 35 35 37 37 37 37 37 38 39 40 39 38 37 36 35 34 32 30 30 32 32 32 33 34 35
63 61 60 59 57 54 53 52 52 51 49 48 46 45 44 42 41 38 36 35 34 33 32 31 30 30 30 30 31 32 33 34 35 36 36 37 37 37 37 37 37 37 37 37 38 39 39 39 39 40 40 39 38 36 35 33 33 33 34 34 34 35 37
66 65 63 60 57 55 56 56 54 52 50 49 48 46 45 44 42 39 37 36 35 34 34 33 32 31 31 31 32 34 35 36 37 37 37 38 38 39 39 39 38 37 37 37 38 39 40 40 40 40 40 40 40 39 38 36 35 35 36 36 36 37 38
68 66 63 60 59 59 59 57 53 52 51 51 49 48 47 45 41 39 38 37 35 35 35 34 34 33 33 33 34 35 37 38 39 39 39 39 40 41 42 42 41 40 38 37 38 39 40 41 41 40 39 40 41 41 41 39 38 38 38 38 39 39 40
67 66 64 63 62 62 59 55 54 54 54 52 50 48 47 43 40 40 40 38 37 37 36 35 35 35 35 35 36 37 39 40 40 40 41 41 42 43 44 44 44 43 41 39 38 38 38 39 39 40 39 40 42 43 43 41 40 40 40 40 41 41 42
67 66 66 65 63 61 57 56 56 55 54 52 49 48 46 42 40 41 41 39 38 38 37 37 37 37 37 37 37 39 40 41 41 42 42 43 44 44 44 45 45 45 44 42 41 39 37 37 38 39 40 41 42 43 44 43 43 43 43 43 44 44 43
69 68 67 65 62 59 57 56 56 55 53 51 49 48 46 43 42 42 42 40 40 39 38 39 40 39 38 38 39 40 41 41 42 43 44 44 44 44 45 45 46 47 47 46 44 42 39 38 38 39 40 41 42 42 43 44 45 46 46 46 46 46 46
71 69 67 65 63 60 58 57 55 54 53 51 50 49 47 44 43 44 43 42 41 41 41 42 41 40 39 39 40 41 42 43 43 44 45 45 44 44 45 45 46 47 48 48 47 44 42 41 40 40 40 41 42 42 43 44 46 47 48 48 48 48 48
72 70 68 66 64 62 60 58 56 55 53 51 50 49 46 44 45 45 44 44 44 43 43 42 41 41 41 41 42 42 43 43 44 44 45 44 44 44 45 46 47 48 48 49 49 47 46 44 43 42 41 40 41 41 42 43 44 45 46 47 48 49 49
73 71 69 67 66 65 63 61 58 56 55 53 51 49 47 46 46 46 45 46 45 44 42 42 42 43 42 42 42 42 42 43 43 44 44 44 44 45 45 45 46 47 48 49 50 50 49 47 45 44 42 41 41 40 41 41 41 43 44 45 47 48 49
75 72 70 68 67 66 65 63 61 59 57 54 52 50 49 48 48 47 48 47 45 43 43 44 44 44 43 43 42 41 41 41 42 43 43 44 44 44 45 45 45 46 48 50 51 52 51 50 48 46 45 43 42 41 40 40 40 40 42 43 45 47 48
76 73 71 70 69 68 67 65 64 62 59 56 54 52 51 50 50 50 50 48 45 44 45 45 44 44 44 43 42 40 40 40 41 42 43 43 44 44 44 45 45 47 48 50 52 52 52 51 50 49 48 46 45 44 42 41 39 39 40 41 42 44 46
76 75 73 71 70 69 68 67 65 63 61 59 57 55 53 53 52 52 51 48 47 46 46 45 45 44 43 41 40 39 39 40 41 43 43 43 43 43 44 44 45 47 48 50 51 52 52 52 52 51 51 50 48 47 45 43 41 39 39 40 40 41 43
77 75 74 72 71 70 68 67 66 64 62 60 58 56 55 55 54 54 52 50 49 49 47 46 46 44 42 40 39 39 40 41 42 43 44 44 44 43 44 44 45 47 48 50 51 52 53 53 52 52 52 51 51 49 48 46 44 43 42 42 41 41 41
78 76 75 73 71 70 69 67 66 65 63 61 60 58 58 57 56 55 53 51 51 50 48 47 46 44 42 41 41 41 41 42 42 43 44 44 44 44 44 45 46 47 48 50 51 52 53 53 53 53 53 53 52 51 50 49 48 46 45 44 44 43 43
79 77 76 74 72 71 69 68 66 65 63 62 61 60 59 59 58 56 54 53 52 50 49 48 46 45 43 42 42 42 42 43 43 43 44 43 43 44 45 46 47 48 49 50 51 52 53 53 54 55 55 54 53 52 51 50 49 48 47 46 46 45 45
81 79 77 75 74 72 70 68 67 65 64 62 62 61 60 59 58 57 55 54 52 50 49 48 46 45 43 43 43 43 44 44 44 44 43 43 43 43 44 46 47 48 49 50 51 52 53 54 55 55 55 55 54 53 51 50 49 48 48 47 47 47 46
82 80 79 77 75 74 72 70 68 66 65 63 63 62 61 60 59 58 56 54 52 50 50 48 47 45 44 44 45 45 45 44 44 43 42 42 42 42 42 44 45 47 49 50 51 52 53 54 54 55 55 55 55 54 53 52 51 51 50 49 49 48 48
83 81 80 79 77 76 74 71 69 68 66 65 63 63 63 62 60 59 57 54 53 52 51 50 48 47 46 46 47 47 46 45 44 43 42 41 41 41 41 42 43 44 45 47 48 49 50 51 52 53 54 54 55 55 54 54 53 53 52 52 52 51 51
Wind_Direction
213 212 211 215 219 218 213 210 210 210 208 204 197 193 197 202 204 201 198 195 199 206 210 211 212 214 214 215 215 212 211 213 215 217 220 220 220 219 218 221 225 229 231 232 232 232 231 230 228 230 232 235 242 246 256 271 286 297 298 304 308 315 321
211 211 210 212 216 217 216 214 213 211 210 209 206 201 198 201 207 207 205 200 199 206 213 215 216 215 214 216 216 216 215 215 217 221 224 225 225 222 222 226 230 231 233 234 234 234 234 233 234 235 236 238 241 245 255 269 282 288 294 298 302 309 316
211 211 211 213 216 218 218 219 220 217 216 216 214 210 204 202 206 209 209 206 203 207 213 216 217 215 213 214 217 219 219 218 218 220 222 225 227 226 226 228 230 231 231 233 234 234 236 235 237 239 240 241 244 247 253 263 276 283 289 293 298 306 316
213 213 213 215 218 219 219 222 224 223 222 222 219 216 210 204 205 208 210 210 209 209 213 215 215 215 214 214 215 219 223 223 222 220 220 223 225 226 227 228 229 229 231 233 234 236 237 238 240 242 243 244 246 250 254 258 267 275 281 287 293 302 314
214 215 215 218 221 220 218 221 225 226 225 225 225 221 218 212 209 209 210 211 213 214 216 217 215 216 218 217 216 218 220 224 226 224 221 221 223 226 228 229 230 230 231 233 236 239 241 242 244 245 244 245 246 250 254 256 260 265 271 278 285 295 309
215 216 216 218 221 220 218 221 225 227 226 226 229 230 230 225 216 213 212 213 217 218 218 219 217 216 216 217 218 218 219 220 223 224 223 222 223 224 226 228 230 232 233 234 237 241 244 245 247 246 245 244 245 248 252 254 256 258 261 267 274 284 298
217 217 217 219 221 221 220 222 225 228 228 227 229 232 235 233 224 217 214 215 217 218 218 220 221 220 217 218 219 219 220 220 220 222 224 225 225 225 226 227 228 231 234 236 238 242 245 246 247 247 246 244 244 247 250 252 253 253 255 259 264 272 284
219 219 220 221 222 222 223 224 225 228 228 226 227 230 234 236 233 225 219 217 218 218 220 222 224 225 223 221 222 222 223 223 221 221 223 226 228 228 227 227 227 229 233 237 240 243 246 247 247 248 248 246 245 247 249 250 251 251 251 254 258 264 276
220 220 222 223 223 224 225 225 225 227 228 226 227 230 233 237 238 235 228 222 220 220 222 224 227 230 229 226 225 226 227 228 227 225 224 225 227 229 230 229 228 229 231 235 240 243 246 248 249 250 250 249 248 247 248 249 250 250 249 252 255 261 271
220 220 222 223 224 224 225 226 226 225 226 227 228 229 231 234 236 237 232 225 222 221 222 224 228 231 232 231 229 227 229 232 232 231 229 228 227 228 231 232 231 231 231 234 237 241 245 248 249 251 252 252 251 250 249 249 250 250 250 252 255 260 268
221 220 221 223 224 224 225 225 224 223 224 226 227 228 228 230 233 235 234 230 227 224 223 224 227 231 234 235 232 228 228 231 234 234 234 232 230 229 230 233 235 235 234 235 237 239 243 246 249 251 252 254 254 252 251 250 251 250 250 252 255 259 265
221 221 221 222 223 224 225 224 223 222 224 226 227 228 229 229 230 232 234 234 232 228 225 225 228 231 235 238 236 232 229 230 233 235 235 235 234 232 231 233 235 237 238 238 239 239 241 244 247 250 252 254 254 253 253 252 252 251 250 252 254 258 263
219 220 221 222 222 223 224 224 224 223 225 227 227 228 229 229 230 232 234 235 234 232 230 228 228 231 234 237 237 235 231 229 231 234 235 236 236 236 235 234 235 237 239 241 241 240 241 242 245 248 250 252 253 254 254 253 253 252 251 251 253 256 261
218 219 220 221 221 222 223 224 224 223 225 227 228 228 229 229 230 232 234 236 236 234 233 231 231 231 233 236 238 237 235 232 231 233 235 236 236 237 238 237 236 236 237 240 241 241 241 242 243 245 247 249 252 253 254 254 253 253 252 251 252 256 259
218 218 219 220 220 222 224 224 224 224 225 227 228 228 229 229 230 231 233 234 235 234 233 233 233 233 233 235 238 239 238 236 235 235 235 236 236 237 239 240 239 238 237 239 241 242 242 243 243 244 245 247 249 251 252 253 253 253 252 251 252 255 258
218 218 218 219 220 221 223 224 225 225 225 226 227 228 228 228 228 229 231 233 234 235 236 236 237 237 236 236 238 240 240 239 238 237 236 236 236 237 239 240 241 242 241 240 241 242 243 243 244 244 245 246 248 249 250 251 252 252 252 252 252 254 257
217 217 217 217 218 219 221 222 223 224 224 225 226 227 228 228 228 229 231 233 234 235 237 239 240 242 242 242 243 243 242 241 240 238 236 235 236 237 239 240 241 243 243 243 243 243 244 244 244 245 246 247 249 249 250 250 251 253 253 252 253 254 257
215 215 215 215 216 218 220 222 223 225 225 226 227 228 229 229 229 230 230 232 233 234 237 240 242 244 245 247 247 246 244 242 240 239 237 235 235 236 239 241 241 241 243 244 244 245 245 246 246 245 246 247 249 250 250 251 252 254 254 254 254 254 256
213 213 213 214 215 217 220 221 223 225 225 226 227 228 229 229 229 229 230 231 234 235 238 241 243 246 247 248 248 246 245 244 242 240 238 237 235 235 238 242 242 242 242 242 244 246 247 247 247 246 246 247 248 249 250 251 253 254 255 255 255 255 256
212 212 212 213 214 216 218 220 222 224 224 225 226 227 228 229 230 230 232 234 237 238 240 242 243 246 247 248 248 247 246 245 244 242 240 239 237 236 237 241 244 245 244 243 243 245 246 247 247 247 246 246 247 248 248 249 251 254 255 255 256 256 257
212 212 212 212 213 215 217 219 221 223 223 224 226 227 228 229 230 231 233 235 237 238 239 241 242 244 245 246 247 247 246 245 244 243 242 240 239 237 236 239 242 245 247 246 245 245 245 246 247 247 247 246 246 247 247 247 249 251 253 255 256 257 257
212 213 213 213 213 214 217 218 220 222 223 225 226 227 228 229 229 231 232 234 237 239 240 242 243 244 244 244 245 245 245 245 244 244 243 241 240 238 237 238 239 242 245 247 248 248 247 246 246 247 247 247 247 247 247 247 248 250 252 253 255 256 257
212 214 214 213 213 215 217 218 219 221 223 224 225 226 228 229 230 231 233 234 237 239 241 243 244 244 244 243 243 243 244 244 244 244 243 242 240 239 238 238 239 240 242 245 249 250 250 250 249 249 249 249 249 249 248 248 248 250 252 253 254 256 257
213 214 214 214 214 215 217 217 218 220 222 223 224 226 229 230 230 232 234 235 237 240 242 244 245 245 244 243 243 243 243 244 244 244 244 242 241 240 239 239 239 240 241 243 246 249 251 252 252 250 249 248 248 249 249 249 249 251 252 254 255 256 257
213 213 214 214 215 216 216 217 219 221 223 224 224 226 228 228 229 233 235 235 237 239 241 243 244 244 244 244 244 243 244 244 245 246 245 244 243 242 241 241 240 240 241 242 244 246 248 251 252 250 248 247 247 248 248 249 250 251 252 253 255 256 257
213 213 213 214 215 215 215 217 219 221 223 224 224 225 226 227 229 233 235 235 236 238 240 241 243 244 245 245 244 244 244 245 245 246 246 246 246 245 244 243 242 242 242 242 243 244 245 248 250 251 250 248 247 246 246 247 248 249 251 253 255 256 258
213 213 214 214 214 214 215 216 218 220 222 224 224 225 226 228 230 233 234 235 236 237 238 241 244 245 246 245 244 243 243 244 245 246 247 248 248 248 247 245 244 243 242 243 243 244 245 246 247 250 251 250 248 246 244 245 246 248 250 252 254 256 258
214 214 214 214 214 214 215 216 217 220 222 224 225 227 228 229 231 233 235 236 237 238 240 243 245 246 245 245 244 244 244 244 245 246 247 249 249 250 249 248 247 246 244 244 243 244 244 245 246 248 250 251 251 250 247 246 247 248 250 252 254 256 257
215 215 215 215 215 215 216 217 218 219 221 223 225 227 228 229 231 233 235 236 238 240 242 245 246 246 246 246 245 245 245 245 246 247 249 250 251 251 251 251 250 248 246 244 243 244 244 245 247 248 250 251 252 253 252 251 250 250 250 251 253 255 256
216 216 216 215 216 216 217 217 218 219 221 222 225 227 228 230 232 233 235 237 239 241 243 245 246 247 247 247 246 246 246 246 247 249 250 252 252 253 253 252 251 249 246 244 243 243 244 245 246 248 249 250 251 252 253 253 253 253 253 252 253 255 256
217 217 216 216 217 218 218 218 219 220 221 222 224 226 228 230 232 234 236 238 240 242 243 245 247 247 248 247 247 247 246 247 248 249 250 251 252 252 252 252 251 249 247 245 244 243 244 245 246 247 248 249 250 251 251 252 253 255 256 256 257 257 258
217 218 218 218 218 219 219 220 221 221 222 223 225 226 228 231 233 235 237 238 240 241 243 245 246 247 247 248 248 247 247 246 247 248 249 250 251 251 251 251 250 249 247 245 244 244 244 244 245 246 247 248 249 251 252 253 253 254 256 258 259 261 262
218 218 219 219 219 220 221 221 222 223 224 224 226 227 229 231 233 235 236 238 239 241 243 244 245 246 246 246 246 246 246 245 246 247 248 249 249 248 248 248 248 247 246 245 244 244 244 244 245 246 247 248 250 251 252 253 254 255 256 259 261 263 265
218 219 219 220 220 221 222 222 223 224 224 225 226 228 230 231 233 235 236 238 240 241 243 244 245 245 244 244 244 244 244 244 245 246 247 248 247 246 246 246 245 245 245 244 244 244 244 244 245 246 247 248 249 251 252 253 255 257 259 260 262 264 265
219 220 220 221 221 222 223 223 224 224 225 226 227 228 230 232 233 235 236 237 239 241 243 243 244 244 244 244 244 244 244 244 245 246 246 246 246 245 244 244 244 244 243 244 244 244 244 245 245 246 247 248 250 251 252 254 256 257 259 260 261 262 263
220 220 221 222 222 223 223 224 225 226 226 226 227 228 229 231 233 234 236 237 239 241 242 242 243 243 244 244 244 244 244 244 245 246 246 246 246 245 245 245 244 244 243 243 244 244 245 246 246 247 248 249 250 251 253 254 256 257 258 259 260 261 261
221 221 222 222 223 223 224 224 225 226 227 227 228 228 229 231 232 234 235 237 238 239 240 241 241 242 242 243 243 244 244 244 245 246 246 246 245 245 245 246 246 246 245 245 246 246 247 248 249 250 250 250 251 252 252 254 255 256 257 258 259 260 260
221 222 223 223 224 224 225 225 225 226 227 227 228 229 230 231 233 234 234 235 236 237 238 239 239 239 240 242 242 243 243 243 244 245 245 245 244 243 243 244 246 247 248 248 249 250 251 252 253 254 254 253 253 253 254 254 255 256 257 258 259 260 260
Height
10964 10967 10969 10970 10972 10973 10975 10976 10977 10978 10978 10979 10981 10982 10984 10986 10987 10988 10989 10991 10992 10993 10995 10996 10997 10998 11000 11001 11002 11004 11006 11007 11009 11011 11012 11014 11015 11016 11017 11018 11019 11019 11020 11021 11022 11023 11024 11024 11025 11025 11026 11026 11026 11026 11027 11026 11026 11026 11026 11026 11025 11025 11025
10961 10963 10965 10967 10968 10970 10972 10973 10974 10975 10976 10977 10979 10980 10982 10984 10985 10987 10988 10989 10991 10992 10994 10995 10996 10998 10999 11000 11002 11003 11004 11006 11008 11009 11011 11012 11013 11015 11016 11017 11017 11018 11019 11020 11021 11022 11023 11023 11024 11024 11025 11025 11025 11026 11026 11026 11026 11026 11025 11025 11025 11025 11024
10956 10959 10961 10963 10965 10967 10970 10971 10972 10974 10975 10976 10977 10978 10980 10982 10984 10985 10987 10988 10989 10991 10992 10993 10995 10996 10998 10999 11000 11001 11003 11004 11005 11007 11009 11011 11012 11014 11015 11015 11016 11017 11018 11019 11020 11021 11021 11022 11023 11023 11024 11024 11025 11025 11025 11025 11025 11025 11025 11025 11024 11024 11024
10952 10954 10956 10959 10961 10964 10967 10968 10970 10972 10973 10974 10976 10977 10978 10980 10981 10983 10985 10986 10988 10989 10990 10991 10993 10995 10996 10998 10999 11000 11001 11002 11004 11005 11007 11009 11011 11012 11013 11014 11014 11015 11016 11017 11019 11019 11020 11021 11022 11022 11023 11023 11024 11024 11024 11025 11025 11025 11024 11024 11024 11024 11023
10948 10950 10953 10955 10958 10961 10964 10965 10967 10969 10971 10973 10974 10976 10976 10977 10979 10980 10982 10984 10985 10987 10988 10990 10992 10993 10995 10996 10997 10998 10999 11001 11002 11004 11005 11007 11008 11009 11011 11012 11013 11014 11015 11016 11017 11018 11019 11020 11020 11021 11022 11022 11023 11023 11023 11024 11024 11024 11024 11023 11023 11023 11023
10944 10946 10949 10951 10953 10957 10960 10961 10963 10965 10968 10971 10972 10974 10975 10976 10976 10978 10980 10982 10983 10985 10986 10988 10989 10991 10992 10994 10995 10996 10997 10999 11000 11002 11003 11004 11005 11007 11008 11010 11011 11012 11013 11014 11015 11016 11017 11018 11019 11020 11021 11021 11022 11022 11022 11022 11023 11023 11023 11023 11022 11022 11022
10940 10942 10945 10947 10950 10953 10956 10958 10960 10962 10966 10968 10970 10972 10973 10974 10975 10976 10977 10979 10981 10983 10984 10985 10987 10988 10990 10991 10992 10994 10995 10996 10998 11000 11001 11002 11003 11005 11006 11008 11009 11010 11011 11012 11013 11014 11015 11017 11018 11019 11019 11020 11020 11021 11021 11021 11021 11021 11022 11022 11022 11021 11021
10935 10938 10941 10944 10947 10950 10952 10955 10958 10959 10963 10966 10967 10968 10970 10972 10973 10974 10975 10976 10978 10980 10982 10983 10984 10985 10987 10989 10990 10992 10992 10994 10996 10997 10999 11000 11002 11003 11004 11005 11007 11008 11009 11010 11011 11012 11013 11015 11016 11017 11018 11018 11019 11019 11020 11020 11020 11020 11020 11020 11020 11020 11020
10930 10934 10937 10941 10944 10946 10949 10952 10954 10957 10960 10962 10963 10965 10967 10969 10971 10972 10973 10974 10976 10977 10979 10980 10981 10983 10985 10986 10988 10990 10991 10992 10993 10995 10996 10998 11000 11001 11002 11003 11004 11005 11006 11008 11009 11010 11011 11013 11014 11015 11016 11017 11018 11018 11018 11018 11018 11019 11019 11019 11019 11019 11019
10924 10929 10933 10936 10940 10943 10945 10948 10952 10955 10957 10958 10960 10962 10964 10966 10968 10969 10971 10972 10973 10975 10976 10978 10979 10981 10982 10983 10985 10988 10989 10990 10991 10992 10994 10995 10997 10999 11000 11001 11002 11003 11004 11005 11006 11008 11009 11010 11011 11013 11014 11015 11016 11016 11016 11017 11017 11017 11017 11017 11018 11017 11017
10920 10924 10928 10932 10936 10939 10942 10945 10948 10951 10952 10954 10956 10959 10960 10963 10965 10967 10968 10969 10971 10972 10974 10976 10977 10978 10979 10980 10983 10985 10986 10987 10988 10989 10991 10992 10994 10996 10998 10999 11000 11001 11002 11003 11004 11005 11007 11008 11009 11010 11012 11013 11014 11014 11014 11015 11015 11016 11016 11016 11016 11016 11016
10916 10920 10924 10928 10932 10935 10938 10941 10944 10946 10947 10950 10953 10955 10957 10960 10962 10964 10965 10967 10968 10970 10971 10973 10974 10975 10976 10978 10980 10981 10983 10984 10985 10986 10987 10989 10991 10993 10995 10997 10997 10999 11000 11001 11002 11003 11004 11005 11006 11008 11009 11010 11011 11012 11012 11013 11013 11014 11014 11014 11014 11014 11014
10910 10914 10919 10923 10927 10931 10934 10937 10939 10941 10943 10946 10949 10952 10954 10957 10959 10961 10962 10964 10966 10967 10968 10970 10971 10972 10974 10975 10976 10978 10979 10981 10982 10982 10984 10986 10988 10990 10992 10994 10995 10996 10997 10998 10999 11000 11001 11002 11004 11005 11007 11007 11008 11009 11010 11011 11011 11012 11012 11012 11012 11012 11013
10905 10910 10915 10919 10923 10926 10929 10932 10935 10937 10939 10942 10945 10948 10951 10954 10956 10958 10960 10961 10963 10964 10965 10966 10967 10969 10970 10972 10973 10974 10975 10977 10978 10979 10981 10983 10986 10987 10989 10990 10992 10993 10995 10995 10996 10997 10998 10999 11001 11002 11003 11004 11005 11006 11007 11008 11009 11010 11010 11010 11010 11011 11011
10900 10906 10911 10914 10918 10921 10924 10928 10930 10932 10935 10938 10941 10944 10947 10950 10953 10955 10957 10958 10960 10961 10961 10962 10963 10965 10967 10968 10969 10970 10972 10974 10975 10977 10979 10980 10982 10984 10985 10987 10988 10990 10991 10992 10993 10994 10995 10997 10998 10999 11000 11001 11002 11003 11005 11006 11007 11007 11007 11008 11008 11008 11009
10896 10901 10906 10910 10913 10917 10920 10923 10925 10927 10931 10934 10937 10940 10943 10946 10949 10951 10953 10954 10956 10957 10958 10959 10960 10961 10963 10964 10965 10967 10969 10971 10972 10974 10976 10977 10978 10980 10982 10983 10985 10986 10988 10989 10990 10991 10992 10994 10995 10996 10997 10998 10999 11000 11001 11003 11004 11004 11005 11005 11006 11006 11006
10891 10896 10901 10905 10908 10912 10914 10917 10919 10922 10926 10929 10932 10935 10938 10941 10944 10946 10949 10951 10952 10954 10955 10956 10957 10958 10959 10961 10962 10964 10966 10967 10969 10970 10972 10973 10974 10976 10978 10979 10981 10983 10984 10985 10987 10988 10989 10990 10991 10992 10994 10995 10995 10997 10998 11000 11001 11001 11001 11002 11003 11003 11004
10885 10890 10895 10899 10903 10906 10908 10911 10914 10917 10921 10924 10927 10930 10933 10937 10939 10942 10944 10946 10948 10949 10951 10952 10954 10955 10956 10957 10959 10960 10962 10963 10965 10966 10968 10969 10971 10972 10974 10975 10977 10978 10980 10981 10983 10984 10985 10987 10988 10989 10990 10991 10992 10993 10995 10996 10997 10997 10998 10999 11000 11000 11000
10878 10884 10889 10893 10897 10900 10903 10907 10910 10913 10917 10920 10923 10926 10928 10931 10935 10937 10939 10941 10943 10945 10947 10948 10950 10951 10952 10954 10955 10956 10958 10959 10961 10962 10963 10965 10966 10968 10970 10971 10972 10973 10975 10977 10978 10980 10981 10982 10984 10986 10987 10987 10988 10990 10991 10993 10993 10994 10994 10995 10996 10996 10997
10871 10876 10881 10886 10890 10894 10899 10903 10905 10908 10911 10915 10918 10920 10923 10927 10930 10933 10935 10938 10940 10941 10943 10944 10946 10947 10949 10950 10951 10952 10954 10955 10956 10957 10959 10960 10962 10964 10965 10966 10967 10968 10970 10972 10974 10975 10976 10978 10980 10982 10983 10984 10985 10986 10987 10989 10989 10990 10990 10991 10992 10992 10992
10864 10869 10873 10879 10884 10889 10893 10896 10898 10902 10906 10909 10912 10916 10920 10923 10926 10929 10932 10933 10935 10936 10938 10939 10941 10943 10944 10946 10947 10948 10949 10950 10951 10953 10954 10956 10958 10959 10960 10961 10962 10964 10965 10967 10968 10970 10971 10973 10975 10977 10978 10979 10981 10982 10983 10984 10985 10986 10986 10987 10988 10988 10988
10858 10861 10866 10873 10879 10883 10885 10888 10892 10896 10900 10904 10908 10911 10914 10917 10921 10924 10926 10928 10930 10931 10933 10934 10936 10938 10939 10941 10942 10943 10944 10945 10947 10948 10949 10951 10953 10954 10955 10956 10957 10959 10961 10962 10964 10965 10966 10968 10970 10971 10973 10975 10976 10977 10979 10980 10981 10981 10982 10983 10983 10983 10983
10852 10856 10862 10868 10872 10875 10878 10883 10887 10891 10895 10899 10903 10906 10908 10912 10916 10918 10920 10923 10925 10926 10928 10929 10931 10933 10934 10935 10936 10938 10939 10940 10941 10943 10945 10946 10947 10948 10949 10951 10953 10955 10957 10958 10959 10960 10962 10963 10965 10966 10968 10970 10971 10972 10974 10976 10977 10977 10978 10978 10978 10978 10979
10846 10852 10857 10861 10864 10868 10873 10878 10882 10885 10888 10892 10897 10900 10903 10908 10911 10913 10915 10917 10919 10920 10923 10924 10925 10927 10929 10930 10931 10932 10933 10935 10936 10938 10940 10941 10942 10943 10944 10946 10948 10950 10952 10953 10955 10956 10957 10959 10960 10962 10963 10965 10966 10967 10969 10971 10972 10973 10973 10973 10973 10973 10974
10840 10845 10849 10854 10858 10863 10869 10873 10875 10878 10882 10887 10892 10895 10898 10902 10905 10906 10909 10911 10913 10915 10917 10918 10919 10921 10923 10924 10925 10927 10928 10930 10931 10933 10934 10935 10936 10938 10940 10941 10943 10945 10947 10948 10950 10951 10953 10954 10955 10956 10957 10959 10960 10962 10964 10966 10967 10968 10968 10968 10968 10969 10970
10833 10838 10843 10848 10854 10859 10863 10866 10869 10873 10876 10881 10885 10889 10892 10896 10899 10900 10902 10905 10907 10909 10910 10911 10913 10915 10917 10919 10920 10921 10923 10924 10926 10927 10928 10929 10931 10933 10935 10937 10939 10940 10942 10943 10945 10947 10948 10949 10950 10951 10952 10953 10955 10956 10958 10960 10961 10962 10963 10963 10963 10964 10965
10826 10832 10837 10843 10848 10853 10857 10860 10863 10867 10870 10874 10879 10882 10886 10891 10893 10893 10896 10898 10900 10902 10903 10904 10907 10910 10912 10914 10915 10916 10918 10919 10920 10922 10923 10924 10927 10928 10930 10932 10933 10935 10936 10938 10940 10942 10943 10944 10945 10946 10947 10948 10949 10950 10952 10954 10955 10956 10957 10958 10958 10959 10960
10820 10825 10831 10837 10842 10846 10850 10854 10858 10861 10865 10869 10873 10877 10881 10884 10886 10887 10890 10892 10893 10895 10897 10900 10902 10904 10906 10907 10909 10911 10912 10914 10915 10917 10918 10920 10922 10923 10925 10926 10928 10929 10931 10933 10934 10936 10937 10938 10940 10941 10942 10943 10944 10945 10946 10948 10950 10951 10952 10953 10953 10953 10954
10814 10819 10825 10831 10836 10840 10844 10848 10852 10856 10859 10863 10867 10871 10875 10877 10879 10881 10883 10885 10887 10890 10893 10895 10896 10898 10900 10902 10903 10905 10907 10909 10911 10912 10913 10915 10916 10918 10919 10921 10922 10924 10925 10927 10928 10930 10931 10933 10934 10936 10937 10938 10939 10940 10941 10943 10945 10946 10947 10947 10948 10948 10948
10807 10813 10819 10825 10829 10833 10838 10842 10846 10849 10853 10857 10861 10865 10868 10870 10872 10874 10876 10878 10882 10886 10888 10889 10890 10892 10894 10896 10898 10900 10902 10904 10906 10907 10908 10910 10911 10912 10913 10915 10917 10918 10919 10921 10922 10923 10925 10927 10929 10930 10931 10932 10933 10934 10936 10938 10939 10940 10941 10942 10942 10942 10942
10801 10806 10813 10818 10822 10827 10831 10835 10839 10843 10848 10852 10855 10858 10861 10863 10865 10868 10870 10874 10878 10880 10882 10883 10885 10887 10889 10891 10893 10895 10897 10899 10900 10902 10903 10904 10905 10906 10908 10909 10911 10912 10913 10914 10916 10917 10919 10921 10923 10924 10925 10926 10927 10929 10931 10933 10934 10935 10936 10936 10937 10936 10936
10794 10800 10805 10810 10815 10820 10825 10830 10834 10838 10842 10846 10849 10852 10855 10857 10859 10862 10865 10869 10872 10874 10876 10878 10880 10882 10884 10886 10888 10890 10892 10893 10894 10895 10897 10898 10899 10900 10902 10903 10905 10906 10907 10908 10910 10911 10913 10915 10916 10917 10919 10920 10922 10923 10926 10928 10929 10930 10931 10931 10931 10931 10931
10787 10793 10798 10804 10809 10814 10819 10824 10829 10832 10836 10840 10843 10846 10848 10850 10853 10855 10859 10863 10866 10868 10870 10872 10874 10876 10878 10880 10882 10884 10885 10887 10888 10889 10891 10892 10893 10894 10896 10897 10898 10899 10901 10902 10903 10905 10906 10908 10910 10911 10913 10914 10916 10918 10920 10922 10923 10925 10925 10925 10926 10926 10926
10780 10786 10791 10797 10802 10807 10812 10817 10822 10826 10830 10834 10837 10839 10841 10843 10846 10849 10853 10857 10859 10861 10864 10866 10868 10870 10872 10874 10876 10877 10879 10880 10882 10883 10884 10886 10887 10889 10890 10891 10892 10893 10894 10895 10897 10899 10900 10902 10904 10905 10906 10908 10910 10913 10914 10916 10917 10919 10919 10920 10920 10920 10920
10774 10779 10785 10791 10796 10801 10806 10811 10815 10820 10824 10827 10830 10832 10834 10837 10839 10843 10847 10850 10853 10855 10858 10859 10862 10864 10866 10868 10870 10871 10873 10874 10876 10877 10878 10880 10881 10883 10883 10884 10886 10887 10888 10890 10891 10893 10894 10896 10897 10898 10900 10902 10904 10906 10908 10910 10911 10912 10913 10913 10914 10914 10914
10767 10773 10778 10784 10789 10794 10799 10804 10808 10813 10817 10821 10823 10825 10827 10830 10833 10836 10840 10843 10846 10849 10851 10853 10856 10858 10860 10862 10863 10865 10867 10868 10870 10871 10873 10874 10876 10877 10877 10879 10880 10881 10882 10884 10885 10886 10888 10890 10891 10892 10894 10896 10898 10900 10902 10903 10904 10905 10906 10907 10907 10908 10909
10761 10767 10771 10777 10783 10787 10792 10796 10801 10806 10810 10813 10816 10818 10820 10823 10825 10829 10833 10836 10840 10842 10844 10847 10850 10852 10854 10855 10856 10858 10860 10862 10864 10866 10867 10868 10870 10871 10872 10873 10874 10875 10876 10877 10879 10880 10882 10883 10885 10886 10888 10890 10891 10893 10895 10896 10897 10898 10899 10900 10901 10902 10903
10755 10760 10764 10769 10775 10780 10784 10790 10794 10798 10802 10806 10809 10810 10813 10815 10818 10821 10826 10829 10833 10835 10838 10840 10843 10845 10847 10848 10850 10852 10854 10856 10859 10860 10861 10863 10864 10865 10866 10867 10868 10869 10871 10871 10873 10874 10876 10878 10879 10881 10882 10883 10885 10886 10888 10889 10891 10892 10893 10894 10895 10896 10897